Погода в Чорткове

Погода в Чорткове : погода сейчас, прогноз погоды и архив. Всё, что Вы хотите узнать о погоде в Чорткове!

Хотите узнать прогноз погоды в Чорткове? Тогда Вам сюда: Погода в Чорткове

Поиск расширенной информации на нашем сайте:

Другие новости

Новости СМИ2

Главная страница сайта

Новости сайта

03.07.2017

Напоминаем, что на нашем специализированном сайте Метеоцентр.Азия вы можете получить высокодетализированные автоматические прогнозы погоды по пунктам России, СНГ и мира в авиационном формате (включающие направление и скорость ветра, видимость, явления погоды, количество и форму облачности, нижнюю и верхнюю границу облачности).


Погода в Чорткове - сегодня

Время (UTC), дата Ветер
(°,м/с) 
Видим.   Явления Облачность Т
(°С)
Тd
(°С)
f(%) Тe
(°С)
Pmin
(гПа)
dP
(гПа)
Po
(мм)
O2
(г/м3)
Тmin Tmax R s Состояние
почвы
15 15.08.17 360 (С) 20000 м    3/0 средняя 
[Ac trans]
+24.2 +10.3 41 +26  1021  -0.3  738  271           
21 15.08.17 350 (С) 10 км    3/0 верхняя 
[Ci fib]
+18.4 +11.4 64 +23  1021.7  738  276           
03 16.08.17 тихо ()   10 км    3/0 средняя, верхняя 
[Ac trans|Ci fib]
+14.3 +10.5 78 +17  1021.5  -0.4  738  280           
09 16.08.17 040 (СВ) 10 км    4/0 средняя, верхняя 
[Ac trans|Cc]
+25.1 +16.7 60 +37  1019.8  -0.3  737  268           
21 16.08.17 330 (СЗ) 10 км    ясно 
+20.3 +15.4 73 +30  1019.4  0.2  737  272           
09 17.08.17 100 (В) 20000 м    4/0 средняя, верхняя 
[Ac trans|Ci fib]
+28.4 +14.5 43 +37  1018.6  737  265           
15 17.08.17 090 (В) 20000 м    6/5 600 м кучево-дожд., верхняя 
[Cb calv|Ci fib]
+29.3 +9.8 30 +31  1016.9  -0.4  736  265           
21 17.08.17 тихо ()   10 км    ясно 
+19.7 +15.5 77 +30  1019  0.2  736  273           
03 18.08.17 тихо ()   10 км    ясно 
+16.5 +14.4 87 +25  1019  -0.6  736  276           
09 18.08.17 060 (СВ) 20000 м    3/3 1000 м 
[Cu med, cong]
+27.8 +15.4 47 +38  1018.4  0.1  737  266           
15 18.08.17 110 (В) 20000 м    8/3 600 м верхняя 
[Cu med, cong|Ci fib]
+30.6 +10 28 +32  1016.3  -1  735  264           
21 18.08.17 100 (В) 10 км    ясно 
+20.3 +13.7 66 +27  1017.9  0.1  736  273           
03 19.08.17 тихо ()   10 км    3/0 верхняя 
[Ci fib]
+16.1 +13 82 +22  1018.3  0.5  736  277           
09 19.08.17 140 (ЮВ) 20000 м    ясно 
+30.1 +9.8 28 +31  1016.5  -0.3  736  265           
15 19.08.17 120 (ЮВ) 20000 м    ясно 
+31.5 +6.8 21 +32  1014.9  -0.8  735  264           
21 19.08.17 120 (ЮВ) 10 км    ясно 
+21.8 +9.3 45 +23  1016.3  0.2  735  272           
03 20.08.17 220 (ЮЗ) 10 км    8/5 600 м средняя 
[Sc|Ac trans]
+16.8 +14.5 86 +26  1016.5  0.1  734  275           
09 20.08.17 130 (ЮВ) 10 км    1/0 средняя 
[Ac trans]
+25.1 +15.9 57 +36  1015.2  -0.9  734  267           
15 20.08.17 120 (ЮВ) 20000 м    3/1 1000 м верхняя 
[Cu hum|Ci fib]
+30.9 +5.3 20 +31  1011.5  -1.4  732  263           
21 20.08.17 310 (СЗ) 10 км    ясно 
+19.6 +15.4 77 +31  1015.3  0.7  734  272           
03 21.08.17 260 (З) 10 км    10/10 600 м кучево-дожд. 
[Cb calv]
+14.6 +12.8 89 +21  1017.2  0.7  735  278           
09 22.08.17 280 (З) 10 км    8/6 600 м кучево-дожд., верхняя 
[Cb cap|Cc]
+16.3 +10.6 69 +19  1016.1  -0.7  734  276           
15 22.08.17 280 (З) 10 км    8/8 600 м кучево-дожд., средняя 
[Cb cap|Ac trans]
+16.9 +9.2 60 +19  1014.5  -0.6  733  276           
21 22.08.17 260 (З) 10 км    6/0 средняя 
[Ac trans]
+13.6 +11 84 +17  1014  -0.5  732  278           
03 23.08.17 250 (З) 10 км    5/0 средняя, верхняя 
[Ac trans|Ci fib]
+11.7 +9.8 88 +12  1013.5  -0.2  732  280           
Время (UTC), дата Ветер
(°,м/с) 
Видим.   Явления Облачность Т
(°С)
Тd
(°С)
f(%) Тe
(°С)
Pmin
(гПа)
dP
(гПа)
Po
(мм)
O2
(г/м3)
Тmin Tmax R s Состояние
почвы

Для получения пояснительной информации подведите курсор к названию столбца.

ПОГОДА в Чорткове - архив

Всё, что Вы хотите узнать о погоде в Чорткове - удобно и подробно!

Выберите нужную дату (начиная с 1 января 2015* года) и нажмите кнопку "Найти".
Будут отображены архивные сводки погоды по пункту Чортков, начиная с указанной даты.


Отображать данные в формате CSV (для использования в таблицах Excel)


Внимание! Наш архив погоды предназначен исключительно для личного некоммерческого использования в познавательных целях. Если Вам необходимы официальные справки о состоянии погоды (для производственных, юридических, коммерческих и т.п. целей), обращайтесь в органы Росгидромета.

*Примечание: данная дата относится к архиву по метеостанциям СССР (Россия, СНГ, Балтия).
Архив по метеостанциям Зарубежной Европы и Азии (кроме Китая) хранится 10 дней, по другим регионам земного шара (Китай, Африка, Америка, Австралия, Океания) - 1 день.

Чортков - район местоположения метеостанции


Название, широта, долгота, высота метеостанции:
Чортков 49°ш. 25.8°д. 318 м над ур. моря [Украина]

Дополнительная информация

В oтличие oт бoльшинства пoгoдных сайтoв мы публикуем пoдрoбную метеoинфoрмацию в детальнoм прoфессиoнальнoм фoрмате.

Характеристики температуры и влажнoсти вoздуха измеряются на высoте 2 м в тени вдали oт зданий и деревьев.
Скoрoсть ветра измеряется на высoте 10 м (на урoвне рoста челoвека скoрoсть ветра ниже в 1.5-2 раза). Если метеoстанция нахoдится в гoрoде или в лесу, тo скoрoсть ветра занижена на 2-4 м/с пo сравнению с oткрытым местoм. Скoрoсть ветра над акватoриями крупных рек и oзёр, а также на вершинах хoлмoв на 2-5 м/с выше, чем в oбычных услoвиях.
Атмoсфернoе давление в разных тoчках местнoсти мoжет значительнo oтличаться oт давления на метеoстанции, в зависимoсти oт услoвий рельефа (при пoдъёме на 10 м давление пoнижается примернo на 1 мм рт.ст.).